[[{"header":{"parameterUnit":"m.s-1","parameterCategory":1,"la1":30.2992,"la2":30.254,"lo1":-89.0895,"lo2":-89.0443,"dy":0.0025,"dx":0.0025,"nx":19,"ny":19,"refTime":"2026-04-13T09:00:00:Z","depth":0,"parameterNumber":2,"parameterNumberName":"U-component_of_WINDS"},"data":[0,0,0,-3.198,-3.1982,-3.2076,-3.2076,-3.2192,-3.2193,0,0,0,0,0,0,0,0,0,0,0,-3.195,-3.1951,-3.1979,-3.1982,-3.2076,-3.2076,-3.2192,-3.2193,0,0,0,0,0,0,0,0,0,0,0,-3.195,-3.1951,-3.1952,-3.1982,-3.2076,-3.2076,-3.2191,-3.2122,0,0,0,0,0,0,0,0,0,0,-3.2031,-3.2003,-3.1951,-3.1952,-3.1983,-3.2076,-3.2076,-3.2118,-3.2126,-3.2147,0,-3.2167,0,-3.2182,-3.22,-3.2201,0,0,0,-3.1982,-3.1996,-3.2023,-3.1952,-3.1983,-3.2075,-3.2034,-3.2123,-3.2131,-3.2158,-3.2169,-3.2173,-3.2184,-3.2201,-3.2202,-3.2325,-3.2325,0,0,-3.1977,-3.1966,-3.2017,-3.2029,-3.2015,-3.2031,-3.2036,-3.2128,-3.2139,-3.2169,-3.2176,-3.2186,-3.2202,-3.2203,-3.2324,-3.2325,0,0,0,-3.1962,-3.1962,-3.1987,-3.2024,-3.2041,-3.2033,-3.204,-3.2135,-3.2144,-3.2177,-3.2187,-3.2202,-3.2204,-3.2324,-3.2325,-3.2339,0,0,0,-3.1959,-3.1953,-3.1985,-3.1979,-3.204,-3.209,-3.2045,-3.2138,-3.2149,-3.2187,-3.2202,-3.2205,-3.2323,-3.2324,-3.2338,-3.2348,0,0,0,-3.1944,-3.1952,-3.1965,-3.1978,-3.2018,-3.2089,-3.2103,-3.214,-3.2154,-3.2201,-3.2205,-3.2323,-3.2324,-3.2336,-3.2345,-3.2376,0,0,0,-3.1926,-3.1977,-3.1965,-3.2026,-3.2017,-3.2098,-3.2102,-3.2163,-3.2205,-3.2203,-3.2323,-3.2324,-3.2336,-3.2344,-3.2374,-3.2398,-3.2407,0,0,-3.1984,-3.1984,-3.2021,-3.2013,-3.2092,-3.2084,-3.2166,-3.2215,-3.2229,-3.2292,-3.2295,-3.2338,-3.2345,-3.2375,-3.2467,-3.2474,0,0,0,-3.2035,-3.2061,-3.2085,-3.2125,-3.2163,-3.2197,-3.2234,-3.2252,-3.2306,-3.2259,-3.2359,-3.2363,-3.2381,-3.2393,-3.2399,-3.2415,-3.233,-3.233,-3.233,-3.2101,-3.2117,-3.2179,-3.2206,-3.2244,-3.2282,-3.2313,-3.2344,-3.2349,-3.2372,-3.239,-3.2444,-3.2457,-3.2462,-3.2478,-3.2406,-3.2406,-3.2406,-3.2406,-3.2187,-3.2225,-3.2231,-3.2293,-3.2309,-3.236,-3.2398,-3.24,-3.2449,-3.2432,-3.2449,-3.2427,-3.247,-3.2484,-3.2407,-3.2407,-3.2407,-3.2407,-3.2406,-3.223,-3.2251,-3.2273,-3.2331,-3.2373,-3.2399,-3.2446,-3.2459,-3.2472,-3.2489,-3.2508,-3.2508,-3.2507,-3.2497,-3.2497,-3.2498,-3.2498,-3.2498,-3.2498,-3.2266,-3.229,-3.2328,-3.2373,-3.2399,-3.2436,-3.2474,-3.25,-3.2532,-3.2538,-3.2538,-3.2539,-3.2472,-3.2454,-3.2501,-3.25,-3.25,-3.25,-3.25,-3.2344,-3.2328,-3.2387,-3.2414,-3.2467,-3.2507,-3.2524,-3.2576,-3.2599,-3.2621,-3.262,-3.2568,-3.2568,-3.2564,-3.2548,-3.2617,-3.2617,-3.2617,-3.2617,-3.2379,-3.2381,-3.2444,-3.2485,-3.2527,-3.2548,-3.2612,-3.2641,-3.2669,-3.2684,-3.2677,-3.2658,-3.2653,-3.2656,-3.2649,-3.2635,-3.2725,-3.2725,-3.2725,-3.2427,-3.2434,-3.2486,-3.2514,-3.2557,-3.2592,-3.2652,-3.2698,-3.2727,-3.2729,-3.2696,-3.2691,-3.2662,-3.2652,-3.2652,-3.2641,-3.2616,0,0]},{"header":{"parameterUnit":"m.s-1","parameterCategory":1,"la1":30.2992,"la2":30.254,"lo1":-89.0895,"lo2":-89.0443,"dy":0.0025,"dx":0.0025,"nx":19,"ny":19,"refTime":"2026-04-13T09:00:00:Z","depth":0,"parameterNumber":3,"parameterNumberName":"V-component_of_WINDS"},"data":[0,0,0,5.1917,5.192,5.2016,5.2016,5.2143,5.2144,0,0,0,0,0,0,0,0,0,0,0,5.1894,5.1895,5.1917,5.192,5.2016,5.2016,5.2143,5.2144,0,0,0,0,0,0,0,0,0,0,0,5.1894,5.1895,5.1897,5.192,5.2015,5.2016,5.2143,5.2068,0,0,0,0,0,0,0,0,0,0,5.1974,5.1959,5.1895,5.1897,5.1921,5.2015,5.2016,5.2064,5.2073,5.2103,0,5.2133,0,5.2141,5.2153,5.2154,0,0,0,5.1915,5.1952,5.1973,5.1897,5.1922,5.2015,5.1971,5.2069,5.2078,5.2114,5.2135,5.2139,5.2143,5.2154,5.2155,5.2349,5.235,0,0,5.191,5.1914,5.1966,5.1979,5.1968,5.1968,5.1974,5.2074,5.2097,5.2135,5.2142,5.2145,5.2155,5.2156,5.2348,5.235,0,0,0,5.1898,5.191,5.1929,5.1974,5.1991,5.1971,5.1978,5.2092,5.2098,5.2143,5.2147,5.2156,5.2158,5.2347,5.2349,5.2409,0,0,0,5.1894,5.1903,5.1927,5.193,5.199,5.2044,5.1993,5.2091,5.2102,5.2146,5.2156,5.2159,5.2346,5.2348,5.2404,5.2435,0,0,0,5.1886,5.1902,5.1918,5.193,5.1972,5.2042,5.2053,5.2093,5.2105,5.2154,5.2159,5.2345,5.2348,5.2401,5.2429,5.2487,0,0,0,5.1878,5.197,5.1919,5.2023,5.1972,5.208,5.2053,5.2132,5.2182,5.2157,5.2346,5.2349,5.2399,5.2425,5.2483,5.2535,5.2558,0,0,5.1996,5.1984,5.2045,5.2003,5.2121,5.2065,5.2191,5.2231,5.2231,5.2309,5.2314,5.2406,5.2429,5.2486,5.2688,5.2706,0,0,0,5.2083,5.2127,5.2157,5.2206,5.2241,5.2272,5.2293,5.2308,5.2375,5.2273,5.2443,5.2457,5.249,5.2515,5.253,5.2558,5.2361,5.2361,5.236,5.2254,5.2251,5.2351,5.2359,5.2407,5.2428,5.2465,5.2489,5.247,5.251,5.2533,5.2656,5.2685,5.2697,5.2726,5.2562,5.2562,5.2562,5.2563,5.2425,5.2485,5.246,5.2548,5.2543,5.2616,5.264,5.2624,5.2689,5.2639,5.2668,5.2611,5.2717,5.2742,5.2567,5.2566,5.2566,5.2565,5.2565,5.2535,5.2563,5.2582,5.2652,5.2706,5.2711,5.2775,5.2768,5.2762,5.2791,5.2813,5.2812,5.2808,5.2803,5.2803,5.2804,5.2804,5.2804,5.2804,5.2641,5.266,5.2716,5.2762,5.2792,5.2831,5.2854,5.2883,5.2912,5.2902,5.2902,5.2878,5.2729,5.2691,5.2811,5.281,5.2809,5.2808,5.2808,5.2812,5.2772,5.2859,5.289,5.2942,5.2995,5.2987,5.3046,5.3069,5.3101,5.3072,5.2963,5.295,5.2937,5.2905,5.3073,5.3073,5.3073,5.3073,5.2903,5.2897,5.2984,5.3033,5.308,5.3082,5.3177,5.3196,5.3208,5.3222,5.3197,5.3155,5.3142,5.3136,5.3119,5.3089,5.33,5.33,5.3301,5.3007,5.3005,5.3089,5.3103,5.3144,5.3178,5.3267,5.3322,5.3328,5.331,5.3232,5.3222,5.3154,5.3132,5.3109,5.3084,5.3028,0,0]}]]